Regional Weather Roundup
Issued by NWS Bismarck, ND

Current Version | Previous Version | Text Only | Print | Product List | Glossary On
Versions: 1 2 3 4 5 6 7 8 9 10 11 12 13 14 15 16 17 18 19 20 21 22 23 24 25 26 27 28 29 30 31 32 33 34 35 36 37 38 39 40 41 42 43 44 45 46 47 48 49 50
000
ASUS43 KBIS 270210
RWRBIS

NWR BROADCAST TEXT
NATIONAL WEATHER SERVICE BISMARCK ND
900 PM CDT WED JUN 26 2019

NOTE: "FAIR" INDICATES FEW OR NO CLOUDS BELOW 12,000 FEET WITH NO
SIGNIFICANT WEATHER AND/OR OBSTRUCTIONS TO VISIBILITY.


CITY           SKY/WX    TMP DP  RH WIND       PRES   REMARKS
WILLISTON      PTCLDY    78  55  44 E9        29.94S
MINOT          CLEAR     79  52  38 S7        29.94S
MINOT AFB      CLEAR     78  59  51 CALM      29.93S
BISMARCK       CLEAR     79  57  46 E6        29.96R
DICKINSON      MOCLDY    74  61  63 E6        29.94F
GARRISON         N/A     75  56  51 E5        29.95S
HETTINGER ARPT PTCLDY    74  61  63 E9        29.96F
JAMESTOWN      CLEAR     78  59  51 SE6       29.96S
CARRINGTON     FAIR      79  57  47 CALM      30.00R
HAZEN          FAIR      77  61  57 SE7       29.96S
MANDAN         FAIR      75  55  50 SE5       29.98R
OAKES          FAIR      77  66  69 CALM      29.97S
RUGBY          FAIR      77  54  44 S3        29.96S
STANLEY        FAIR      75  55  50 CALM      29.97S
TIOGA          FAIR      73  54  49 NE6       29.98S
WATFORD CITY   FAIR      75  55  50 E8        29.93S
$$

CITY           SKY/WX    TMP DP  RH WIND       PRES   REMARKS
GRAND FORKS    PTCLDY    77  57  50 N5        29.95R
GRAND FORKS AF CLEAR     78  53  42 CALM      29.96S
DEVILS LAKE    CLEAR     77  54  44 SE5       29.98S
FARGO          CLEAR     82  57  42 S5        29.95R
CANDO          FAIR      77  55  47 SE5       29.99S
CAVALIER       FAIR      79  54  41 CALM      29.95R
GRAFTON        FAIR      79  50  36 N3        29.97R HAZE
GWINNER          N/A     79  66  65 CALM      29.96S
LANGDON        FAIR     N/A N/A N/A NE5       29.99S
ROLLA          FAIR      75  59  57 CALM      29.99S
WALHALLA       FAIR      79  55  44 N5        29.95S
$$

CITY           SKY/WX    TMP DP  RH WIND       PRES   REMARKS
ABERDEEN       CLEAR     79  65  62 NE8       29.93F
MOBRIDGE       PTCLDY    78  63  59 E10       29.92S
BUFFALO          N/A     73  62  68 E10       29.92F
RAPID CITY     PTCLDY    73  65  75 E7        29.93R
GLASGOW        MOCLDY    77  53  43 E10       29.90F
SIDNEY         MOCLDY    78  54  43 NE7       29.92S
WOLF POINT     CLOUDY    78  57  48 E8        29.92S
GLENDIVE       MOCLDY    75  54  47 E5        29.95R
MILES CITY     CLOUDY    74  55  51 NW7       29.94R
BAKER          MOCLDY    74  57  55 E6        29.98R
$$

CITY           SKY/WX    TMP DP  RH WIND       PRES   REMARKS
BILLINGS       CLOUDY    69  53  56 N3        29.96R
GREAT FALLS    CLOUDY    57  53  86 N9        29.93R
REGINA         PTCLDY    72  50  46 NW6       29.98S
ESTEVAN        CLEAR     73  50  43 N8        29.98R
$$




USA.gov is the U.S. government's official web portal to all federal, state and local government web resources and services.